This is the latest recevied weather packets stored in our database for station/object I3RKE-10. If no packets are shown the sender has not sent any weather packets the latest 10 day(s).
| Time | Temp. | Humidity | Pressure | Rain* | Wind** | Luminosity | Snow |
|---|---|---|---|---|---|---|---|
| 1777636566 | 21.67° C | 20% | 1019.8 hPa | - | - | - | - |
| 1777635666 | 21.11° C | 21% | 1019.9 hPa | - | - | - | - |
| 1777634766 | 21.11° C | 20% | 1020.3 hPa | - | - | - | - |
| 1777633866 | 21.11° C | 21% | 1020.4 hPa | - | - | - | - |
| 1777632966 | 20.56° C | 21% | 1020.5 hPa | - | - | - | - |
| 1777632066 | 20.56° C | 22% | 1020.6 hPa | - | - | - | - |
| 1777631165 | 19.44° C | 21% | 1020.9 hPa | - | - | - | - |
| 1777630265 | 18.89° C | 23% | 1020.9 hPa | - | - | - | - |
| 1777629365 | 18.89° C | 24% | 1021.1 hPa | - | - | - | - |
| 1777628465 | 18.33° C | 24% | 1021.2 hPa | - | - | - | - |
| 1777627565 | 18.33° C | 24% | 1021.3 hPa | - | - | - | - |
| 1777626665 | 17.78° C | 26% | 1021.4 hPa | - | - | - | - |
| 1777625765 | 17.22° C | 26% | 1021.6 hPa | - | - | - | - |
| 1777624865 | 16.67° C | 25% | 1021.6 hPa | - | - | - | - |
| 1777623965 | 16.11° C | 25% | 1021.7 hPa | - | - | - | - |
| 1777623065 | 16.11° C | 25% | 1021.8 hPa | - | - | - | - |
| 1777622162 | 15.56° C | 25% | 1021.8 hPa | - | - | - | - |
| 1777621262 | 15.56° C | 27% | 1021.6 hPa | - | - | - | - |
| 1777620399 | 15.56° C | 28% | 1021.7 hPa | - | - | - | - |
| 1777620362 | 15.56° C | 28% | 1021.7 hPa | - | - | - | - |
| 1777619461 | 15° C | 29% | 1021.6 hPa | - | - | - | - |
| 1777618561 | 14.44° C | 30% | 1021.6 hPa | - | - | - | - |
| 1777617661 | 14.44° C | 38% | 1021.6 hPa | - | - | - | - |
| 1777616761 | 13.33° C | 43% | 1021.5 hPa | - | - | - | - |
| 1777615861 | 12.22° C | 42% | 1021.6 hPa | - | - | - | - |
* Rain since midnight (hover to see other rain measurements)
** Current wind speed in m/s (hover to see current wind gust speed)